Location: Dampvalley
(47.9094°N, 6.1967°E)
Time: 09:22:09
(UTC+00:00)

AO-109 - Pass Details

Date: 07 December 2021
Orbit: 478 x 516 km, 60.7° (Epoch: 21 January)

Event Time Altitude Azimuth Distance (km) Brightness Sun altitude
Exits shadow 05:17:16 23° 219° (SW) 1,074 ? -18.1°
Drops below altitude 10° 05:19:36 10° 182° (S) 1,647 ? -17.7°
Sets 05:22:00 0° 168° (SSE) 2,523 ? -17.3°
